Regional Weather Roundup
Issued by NWS

Home | Current Version | Previous Version | Graphics & Text | Print | Product List | Glossary On
Versions: 1 2 3 4 5 6 7 8 9 10 11 12 13 14 15 16 17 18 19 20 21 22 23 24 25 26 27 28 29 30 31 32 33 34 35 36 37 38 39 40 41 42 43 44 45 46 47 48 49 50
000
ASUS43 KOAX 252302
RWRNE

WEATHER ROUNDUP FOR NEBRASKA
NATIONAL WEATHER SERVICE OMAHA NE
600 PM CDT THU AUG 25 2016

NOTES: SATELLITE DATA IS BEING USED TO AUGMENT CLOUD COVER ABOVE
       12000 FEET.
       "FAIR" INDICATES FEW OR NO CLOUDS BELOW 12,000 FEET WITH NO
       SIGNIFICANT WEATHER AND/OR OBSTRUCTIONS TO VISIBILITY.

  * THESE STATIONS DO NOT REPORT WEATHER SUCH AS RAIN...SNOW OR FOG.

NEZ001>004-019>022-054>056-260000-
NEBRASKA PANHANDLE

CITY           SKY/WX    TMP DP  RH WIND       PRES   REMARKS
SCOTTSBLUFF    SUNNY     71  46  40 E10       30.20F
ALLIANCE       MOSUNNY   69  44  40 NE5       30.21F
CHADRON        CLOUDY    67  47  48 NE3       30.22S
KIMBALL        MOSUNNY   69  45  41 SE14      30.21F
SIDNEY         MOSUNNY   73  42  32 SE10      30.22S
$$

NEZ057>060-069>072-079>082-260000-
SOUTHWEST NEBRASKA

CITY           SKY/WX    TMP DP  RH WIND       PRES   REMARKS
NORTH PLATTE   SUNNY     79  50  36 SE8       30.15F
IMPERIAL       SUNNY     78  43  28 E8        30.15F
LEXINGTON      SUNNY     78  48  34 E7        30.14F
MCCOOK         SUNNY     78  51  38 E12       30.13F
OGALLALA       SUNNY     77  44  30 SE8       30.17S
$$

NEZ005>010-023>029-035>040-094-260000-
NORTH CENTRAL NEBRASKA

CITY           SKY/WX    TMP DP  RH WIND       PRES   REMARKS
VALENTINE      SUNNY     72  45  37 NW9       30.20S
AINSWORTH      SUNNY     72  50  45 N5        30.19S
BROKEN BOW     SUNNY     76  51  41 NE6       30.16F
O`NEILL        SUNNY     76  46  35 NW7       30.17S
ORD            SUNNY     78  49  35 VRB5      30.14F
THEDFORD       MOSUNNY   75  48  37 NE3       30.20S
$$

NEZ041-046>049-061>064-073>077-083>087-260000-
SOUTH CENTRAL NEBRASKA

CITY           SKY/WX    TMP DP  RH WIND       PRES   REMARKS
GRAND ISLAND   MOSUNNY   77  55  46 E9        30.14F
AURORA         SUNNY     75  56  51 NE10      30.13F
HASTINGS       MOSUNNY   76  55  48 NE9       30.14F
HEBRON         CLOUDY    74  60  60 NE9       30.12S
HOLDREGE       SUNNY     74  54  48 NE8       30.14F
KEARNEY *      SUNNY     75  54  46 NE9       30.13F
YORK           MOSUNNY   75  59  57 NE9       30.13F
$$

NEZ011>018-030>034-042>045-260000-
NORTHEAST NEBRASKA

CITY           SKY/WX    TMP DP  RH WIND       PRES   REMARKS
NORFOLK        SUNNY     75  54  47 NW3       30.14F
ALBION         SUNNY     73  55  52 NE5       30.15F
BLAIR          MOSUNNY   74  61  61 N8        30.12S
FREMONT        MOSUNNY   74  58  58 N8        30.13F
TEKAMAH        SUNNY     77  61  57 N6        30.12F
WAYNE          SUNNY     74  58  58 NW3       30.14F
$$

NEZ050>053-065>068-078-088>093-260000-
SOUTHEAST NEBRASKA

CITY           SKY/WX    TMP DP  RH WIND       PRES   REMARKS
LINCOLN        MOSUNNY   75  59  57 NE8       30.12F
OMAHA EPPLEY   PTSUNNY   78  61  55 N6        30.11F
BEATRICE       MOSUNNY   75  60  59 NE10      30.10F
FALLS CITY     CLOUDY    77  61  57 N9        30.08S
NEBRASKA CITY  MOSUNNY   73  60  62 NE6       30.11F
PLATTSMOUTH    MOSUNNY   75  61  61 N5        30.11S
$$

NEZ044-045-051>053-067-260000-
OMAHA AREA

CITY           SKY/WX    TMP DP  RH WIND       PRES   REMARKS
OMAHA EPPLEY   PTSUNNY   78  61  55 N6        30.11F
BLAIR          MOSUNNY   74  61  61 N8        30.12S
FREMONT        MOSUNNY   74  58  58 N8        30.13F
MILLARD        CLOUDY    77  60  55 N5        30.11S
OFFUTT AFB     PTSUNNY   75  62  63 N7        30.10F
PLATTSMOUTH    MOSUNNY   75  61  61 N5        30.11S
WAHOO          FAIR      74  59  59 N7        30.12F
$$




USA.gov is the U.S. government's official web portal to all federal, state and local government web resources and services.